Location: Unspecified
(0.0000°N, 0.0000°E)
Time: 21:36:03
(UTC+00:00)

USA 136 - Pass Details

Date: 10 June 2023
Orbit: 3538 x 36810 km, 63.6° (Epoch: 27 February)

Event Time Altitude Azimuth Distance (km) Brightness Sun altitude
Rises 07:36:40 0° 183° (S) 7,994 7.4 22.3°
Reaches altitude 10° 07:40:53 10° 174° (S) 7,421 7.4 23.2°
Maximum altitude 08:06:51 46° 95° (E) 9,377 9.3 29.1°
Drops below altitude 10° 12:06:01 10° 20° (NNE) 39,987 11.7 66.9°
Enters shadow 18:46:39 10° 106° (ESE) 12,307 7.9 -10.8°
